| time (UTC) | temp F | wind direction | speed MPH | gust MPH | rain 1hr in | rain 24hr in | rain mn in | humidity % | barometer mb |
| 20260505050521 | 59 | 192 | 8.0 | 18.0 | 0.00 | 0.00 | 0.00 | 47 | 1004.3 |
| 20260505041517 | 59 | 185 | 6.0 | 15.0 | 0.00 | 0.00 | 0.00 | 46 | 1004.3 |
| 20260505041008 | 59 | 198 | 8.0 | 16.0 | 0.00 | 0.00 | 0.00 | 46 | 1004.2 |
| 20260505040507 | 59 | 182 | 7.0 | 16.0 | 0.00 | 0.00 | 0.00 | 46 | 1004.3 |
| 20260505040007 | 59 | 167 | 7.0 | 14.0 | 0.00 | 0.00 | 0.00 | 46 | 1004.3 |
| 20260505035511 | 59 | 177 | 8.0 | 14.0 | 0.00 | 0.00 | 0.00 | 45 | 1004.3 |
| 20260505035006 | 59 | 211 | 7.0 | 17.0 | 0.00 | 0.00 | 0.00 | 45 | 1004.2 |
| 20260505034505 | 59 | 191 | 7.0 | 17.0 | 0.00 | 0.00 | 0.00 | 45 | 1004.1 |
| 20260505034005 | 59 | 168 | 8.0 | 16.0 | 0.00 | 0.00 | 0.00 | 44 | 1004.1 |
| 20260505033506 | 59 | 155 | 6.0 | 16.0 | 0.00 | 0.00 | 0.00 | 44 | 1004.1 |
| 20260505033005 | 59 | 131 | 7.0 | 15.0 | 0.00 | 0.00 | 0.00 | 44 | 1004.1 |
| 20260505032505 | 59 | 195 | 4.0 | 14.0 | 0.00 | 0.00 | 0.00 | 44 | 1004.3 |
| 20260505032006 | 59 | 174 | 7.0 | 15.0 | 0.00 | 0.00 | 0.00 | 44 | 1004.3 |
| 20260505031507 | 59 | 188 | 8.0 | 14.0 | 0.00 | 0.00 | 0.00 | 43 | 1004.3 |
| 20260505031007 | 60 | 148 | 7.0 | 12.0 | 0.00 | 0.00 | 0.00 | 43 | 1004.3 |
| 20260505030503 | 60 | 192 | 6.0 | 14.0 | 0.00 | 0.00 | 0.00 | 42 | 1004.3 |
| 20260505030003 | 60 | 177 | 8.0 | 18.0 | 0.00 | 0.00 | 0.00 | 42 | 1004.3 |
| 20260505025504 | 61 | 133 | 7.0 | 18.0 | 0.00 | 0.00 | 0.00 | 41 | 1004.4 |
| 20260505025004 | 61 | 202 | 8.0 | 14.0 | 0.00 | 0.00 | 0.00 | 41 | 1004.4 |
| 20260505024504 | 61 | 187 | 7.0 | 14.0 | 0.00 | 0.00 | 0.00 | 41 | 1004.4 |
| 20260505024003 | 61 | 151 | 6.0 | 14.0 | 0.00 | 0.00 | 0.00 | 41 | 1004.4 |
| 20260505023503 | 61 | 186 | 6.0 | 11.0 | 0.00 | 0.00 | 0.00 | 41 | 1004.6 |
| 20260505023008 | 61 | 181 | 5.0 | 11.0 | 0.00 | 0.00 | 0.00 | 40 | 1004.5 |
| 20260505022502 | 61 | 182 | 6.0 | 13.0 | 0.00 | 0.00 | 0.00 | 40 | 1004.6 |
| 20260505022003 | 61 | 186 | 5.0 | 11.0 | 0.00 | 0.00 | 0.00 | 40 | 1004.6 |
| 20260505021502 | 61 | 176 | 5.0 | 11.0 | 0.00 | 0.00 | 0.00 | 40 | 1004.5 |
| 20260505021001 | 61 | 139 | 5.0 | 9.0 | 0.00 | 0.00 | 0.00 | 39 | 1004.7 |
| 20260505020501 | 61 | 175 | 4.0 | 8.0 | 0.00 | 0.00 | 0.00 | 40 | 1004.6 |
| 20260505020002 | 61 | 174 | 4.0 | 11.0 | 0.00 | 0.00 | 0.00 | 40 | 1004.7 |
| 20260505015502 | 61 | 163 | 5.0 | 11.0 | 0.00 | 0.00 | 0.00 | 39 | 1004.8 |
| 20260505015100 | 61 | 165 | 5.0 | 10.0 | 0.00 | 0.00 | 0.00 | 39 | 1004.8 |
| 20260505014610 | 61 | 164 | 4.0 | 11.0 | 0.00 | 0.00 | 0.00 | 39 | 1004.8 |
| 20260505014100 | 61 | 136 | 3.0 | 11.0 | 0.00 | 0.00 | 0.00 | 38 | 1004.8 |
| 20260505013559 | 61 | 187 | 4.0 | 9.0 | 0.00 | 0.00 | 0.00 | 38 | 1004.7 |
| 20260505013059 | 61 | 187 | 4.0 | 9.0 | 0.00 | 0.00 | 0.00 | 38 | 1004.8 |
| 20260505013001 | 61 | 155 | 4.0 | 7.0 | 0.00 | 0.00 | 0.00 | 38 | 1004.8 |
| 20260505012600 | 61 | 156 | 3.0 | 8.0 | 0.00 | 0.00 | 0.00 | 38 | 1004.8 |
| 20260505012058 | 61 | 165 | 2.0 | 6.0 | 0.00 | 0.00 | 0.00 | 39 | 1004.8 |
| 20260505011606 | 61 | 167 | 3.0 | 5.0 | 0.00 | 0.00 | 0.00 | 38 | 1004.7 |
| 20260505011057 | 61 | 155 | 3.0 | 6.0 | 0.00 | 0.00 | 0.00 | 38 | 1004.8 |
| 20260505010557 | 61 | 151 | 3.0 | 5.0 | 0.00 | 0.00 | 0.00 | 38 | 1004.7 |
| 20260505010057 | 61 | 142 | 3.0 | 8.0 | 0.00 | 0.00 | 0.00 | 38 | 1004.7 |
| 20260505005557 | 61 | 158 | 3.0 | 9.0 | 0.00 | 0.00 | 0.00 | 38 | 1004.5 |
| 20260505005059 | 61 | 150 | 2.0 | 6.0 | 0.00 | 0.00 | 0.00 | 38 | 1004.5 |
| 20260505004557 | 61 | 178 | 2.0 | 5.0 | 0.00 | 0.00 | 0.00 | 38 | 1004.5 |
| 20260505004057 | 62 | 142 | 2.0 | 6.0 | 0.00 | 0.00 | 0.00 | 37 | 1004.5 |
| 20260505003557 | 62 | 123 | 2.0 | 5.0 | 0.00 | 0.00 | 0.00 | 38 | 1004.6 |
| 20260505003056 | 62 | 169 | 2.0 | 5.0 | 0.00 | 0.00 | 0.00 | 37 | 1004.5 |
| 20260505002556 | 62 | 182 | 2.0 | 6.0 | 0.00 | 0.00 | 0.00 | 37 | 1004.5 |
| 20260505002056 | 62 | 191 | 3.0 | 6.0 | 0.00 | 0.00 | 0.00 | 37 | 1004.4 |
| 20260505001557 | 62 | 181 | 2.0 | 6.0 | 0.00 | 0.00 | 0.00 | 36 | 1004.3 |
| 20260505001055 | 63 | 148 | 2.0 | 6.0 | 0.00 | 0.00 | 0.00 | 36 | 1004.2 |
| 20260505000555 | 63 | 157 | 3.0 | 6.0 | 0.00 | 0.00 | 0.00 | 35 | 1004.0 |
| 20260505000114 | 64 | 170 | 2.0 | 8.0 | 0.00 | 0.00 | 0.00 | 35 | 1004.1 |
| 20260504235557 | 64 | 163 | 2.0 | 6.0 | 0.00 | 0.00 | 0.00 | 34 | 1004.1 |
| 20260504235055 | 64 | 163 | 1.0 | 6.0 | 0.00 | 0.00 | 0.00 | 34 | 1004.2 |
| 20260504234555 | 65 | 188 | 2.0 | 7.0 | 0.00 | 0.00 | 0.00 | 32 | 1004.1 |
| 20260504234055 | 65 | 184 | 4.0 | 7.0 | 0.00 | 0.00 | 0.00 | 32 | 1004.1 |
| 20260504233554 | 65 | 205 | 3.0 | 6.0 | 0.00 | 0.00 | 0.00 | 32 | 1004.1 |
| 20260504233108 | 65 | 77 | 2.0 | 8.0 | 0.00 | 0.00 | 0.00 | 33 | 1004.1 |
| 20260504232554 | 65 | 191 | 3.0 | 8.0 | 0.00 | 0.00 | 0.00 | 33 | 1004.0 |
| 20260504232053 | 65 | 205 | 0.0 | 6.0 | 0.00 | 0.00 | 0.00 | 33 | 1004.1 |
| 20260504231553 | 65 | 202 | 2.0 | 7.0 | 0.00 | 0.00 | 0.00 | 33 | 1004.1 |
| 20260504231053 | 65 | 203 | 2.0 | 7.0 | 0.00 | 0.00 | 0.00 | 32 | 1004.1 |
| 20260504230553 | 65 | 221 | 1.0 | 5.0 | 0.00 | 0.00 | 0.00 | 32 | 1004.2 |
| 20260504230053 | 66 | 244 | 1.0 | 11.0 | 0.00 | 0.00 | 0.00 | 32 | 1004.1 |
| 20260504225553 | 66 | 265 | 3.0 | 11.0 | 0.00 | 0.00 | 0.00 | 32 | 1004.0 |
| 20260504225053 | 66 | 185 | 4.0 | 11.0 | 0.00 | 0.00 | 0.00 | 30 | 1003.9 |
| 20260504224601 | 66 | 215 | 6.0 | 11.0 | 0.00 | 0.00 | 0.00 | 31 | 1003.9 |
| 20260504224052 | 66 | 164 | 2.0 | 7.0 | 0.00 | 0.00 | 0.00 | 32 | 1003.9 |
| 20260504223551 | 67 | 201 | 2.0 | 14.0 | 0.00 | 0.00 | 0.00 | 31 | 1003.9 |
| 20260504223112 | 67 | 226 | 3.0 | 14.0 | 0.00 | 0.00 | 0.00 | 30 | 1003.9 |
| 20260504222552 | 67 | 229 | 5.0 | 10.0 | 0.00 | 0.00 | 0.00 | 31 | 1004.0 |
| 20260504222052 | 67 | 213 | 2.0 | 7.0 | 0.00 | 0.00 | 0.00 | 32 | 1004.0 |
| 20260504221550 | 67 | 185 | 2.0 | 8.0 | 0.00 | 0.00 | 0.00 | 31 | 1004.0 |
| 20260504221053 | 66 | 208 | 3.0 | 9.0 | 0.00 | 0.00 | 0.00 | 31 | 1004.1 |
| 20260504220550 | 66 | 247 | 3.0 | 10.0 | 0.00 | 0.00 | 0.00 | 32 | 1004.1 |
| 20260504220050 | 66 | 196 | 3.0 | 15.0 | 0.00 | 0.00 | 0.00 | 32 | 1004.1 |
| 20260504215550 | 67 | 217 | 4.0 | 15.0 | 0.00 | 0.00 | 0.00 | 33 | 1004.1 |
| 20260504215050 | 67 | 294 | 4.0 | 11.0 | 0.00 | 0.00 | 0.00 | 31 | 1004.1 |
| 20260504214550 | 66 | 217 | 3.0 | 13.0 | 0.00 | 0.00 | 0.00 | 32 | 1004.1 |
| 20260504214050 | 66 | 199 | 4.0 | 13.0 | 0.00 | 0.00 | 0.00 | 33 | 1004.2 |
| 20260504213548 | 67 | 201 | 4.0 | 9.0 | 0.00 | 0.00 | 0.00 | 32 | 1004.1 |
| 20260504213057 | 66 | 220 | 3.0 | 10.0 | 0.00 | 0.00 | 0.00 | 34 | 1004.2 |
| 20260504212548 | 66 | 250 | 4.0 | 17.0 | 0.00 | 0.00 | 0.00 | 33 | 1004.2 |
| 20260504212047 | 66 | 184 | 7.0 | 16.0 | 0.00 | 0.00 | 0.00 | 32 | 1004.2 |
| 20260504211546 | 66 | 224 | 6.0 | 13.0 | 0.00 | 0.00 | 0.00 | 33 | 1004.2 |
| 20260504211046 | 66 | 194 | 3.0 | 14.0 | 0.00 | 0.00 | 0.00 | 33 | 1004.2 |
| 20260504210548 | 66 | 259 | 5.0 | 14.0 | 0.00 | 0.00 | 0.00 | 34 | 1004.3 |
| 20260504210046 | 66 | 241 | 4.0 | 15.0 | 0.00 | 0.00 | 0.00 | 34 | 1004.4 |
| 20260504205545 | 66 | 183 | 3.0 | 11.0 | 0.00 | 0.00 | 0.00 | 34 | 1004.4 |
| 20260504205047 | 65 | 213 | 5.0 | 12.0 | 0.00 | 0.00 | 0.00 | 35 | 1004.5 |
| 20260504204548 | 66 | 197 | 3.0 | 11.0 | 0.00 | 0.00 | 0.00 | 33 | 1004.4 |
| 20260504204044 | 67 | 234 | 4.0 | 14.0 | 0.00 | 0.00 | 0.00 | 33 | 1004.5 |
| 20260504203542 | 67 | 202 | 6.0 | 14.0 | 0.00 | 0.00 | 0.00 | 33 | 1004.6 |
| 20260504203058 | 66 | 199 | 2.0 | 17.0 | 0.00 | 0.00 | 0.00 | 35 | 1004.5 |
| 20260504202542 | 66 | 193 | 7.0 | 17.0 | 0.00 | 0.00 | 0.00 | 33 | 1004.6 |
| 20260504202046 | 66 | 212 | 3.0 | 12.0 | 0.00 | 0.00 | 0.00 | 36 | 1004.7 |
| 20260504201542 | 66 | 326 | 5.0 | 12.0 | 0.00 | 0.00 | 0.00 | 35 | 1004.7 |
| 20260504201039 | 65 | 192 | 6.0 | 12.0 | 0.00 | 0.00 | 0.00 | 35 | 1004.8 |
| 20260504200540 | 65 | 228 | 7.0 | 15.0 | 0.00 | 0.00 | 0.00 | 35 | 1004.8 |
| 20260504200039 | 65 | 216 | 3.0 | 19.0 | 0.00 | 0.00 | 0.00 | 36 | 1004.9 |
| 20260504195538 | 65 | 239 | 3.0 | 19.0 | 0.00 | 0.00 | 0.00 | 35 | 1004.9 |
| 20260504195038 | 66 | 228 | 7.0 | 15.0 | 0.00 | 0.00 | 0.00 | 35 | 1004.9 |
| 20260504194538 | 66 | 275 | 2.0 | 16.0 | 0.00 | 0.00 | 0.00 | 33 | 1004.9 |
| 20260504194037 | 67 | 255 | 4.0 | 16.0 | 0.00 | 0.00 | 0.00 | 34 | 1005.1 |
| 20260504193540 | 67 | 294 | 4.0 | 11.0 | 0.00 | 0.00 | 0.00 | 35 | 1004.9 |
| 20260504193037 | 66 | 198 | 3.0 | 11.0 | 0.00 | 0.00 | 0.00 | 39 | 1005.1 |
| 20260504192535 | 66 | 190 | 3.0 | 11.0 | 0.00 | 0.00 | 0.00 | 36 | 1005.1 |
| 20260504192035 | 66 | 241 | 3.0 | 10.0 | 0.00 | 0.00 | 0.00 | 36 | 1005.2 |
| 20260504191535 | 66 | 308 | 4.0 | 11.0 | 0.00 | 0.00 | 0.00 | 36 | 1005.3 |
| 20260504191034 | 66 | 234 | 5.0 | 11.0 | 0.00 | 0.00 | 0.00 | 36 | 1005.4 |
| 20260504190534 | 65 | 5 | 3.0 | 8.0 | 0.00 | 0.00 | 0.00 | 38 | 1005.4 |
| 20260504190037 | 65 | 200 | 3.0 | 10.0 | 0.00 | 0.00 | 0.00 | 35 | 1005.4 |
| 20260504185535 | 65 | 213 | 4.0 | 16.0 | 0.00 | 0.00 | 0.00 | 38 | 1005.4 |
| 20260504185036 | 66 | 305 | 5.0 | 16.0 | 0.00 | 0.00 | 0.00 | 34 | 1005.3 |
| 20260504184534 | 66 | 268 | 3.0 | 15.0 | 0.00 | 0.00 | 0.00 | 36 | 1005.4 |
| 20260504184033 | 66 | 257 | 9.0 | 15.0 | 0.00 | 0.00 | 0.00 | 35 | 1005.4 |
| 20260504183533 | 66 | 278 | 6.0 | 10.0 | 0.00 | 0.00 | 0.00 | 34 | 1005.4 |
| 20260504183032 | 67 | 284 | 3.0 | 19.0 | 0.00 | 0.00 | 0.00 | 36 | 1005.5 |
| 20260504182532 | 66 | 300 | 7.0 | 19.0 | 0.00 | 0.00 | 0.00 | 39 | 1005.5 |
| 20260504182031 | 66 | 186 | 6.0 | 11.0 | 0.00 | 0.00 | 0.00 | 37 | 1005.4 |
| 20260504181536 | 64 | 269 | 2.0 | 11.0 | 0.00 | 0.00 | 0.00 | 43 | 1005.5 |
| 20260504181033 | 64 | 151 | 2.0 | 11.0 | 0.00 | 0.00 | 0.00 | 37 | 1005.7 |
| 20260504180531 | 64 | 336 | 5.0 | 12.0 | 0.00 | 0.00 | 0.00 | 39 | 1005.7 |
| 20260504180028 | 64 | 202 | 4.0 | 12.0 | 0.00 | 0.00 | 0.00 | 35 | 1005.7 |
| 20260504175528 | 64 | 204 | 4.0 | 16.0 | 0.00 | 0.00 | 0.00 | 39 | 1005.7 |
| 20260504175029 | 65 | 280 | 7.0 | 16.0 | 0.00 | 0.00 | 0.00 | 35 | 1005.6 |
| 20260504174627 | 65 | 271 | 4.0 | 15.0 | 0.00 | 0.00 | 0.00 | 39 | 1005.8 |
| 20260504174027 | 65 | 186 | 5.0 | 15.0 | 0.00 | 0.00 | 0.00 | 37 | 1005.9 |
| 20260504173527 | 65 | 217 | 4.0 | 19.0 | 0.00 | 0.00 | 0.00 | 36 | 1005.8 |
| 20260504173025 | 65 | 310 | 3.0 | 18.0 | 0.00 | 0.00 | 0.00 | 38 | 1005.8 |
| 20260504172525 | 65 | 248 | 2.0 | 18.0 | 0.00 | 0.00 | 0.00 | 40 | 1005.8 |
| 20260504172025 | 64 | 306 | 4.0 | 10.0 | 0.00 | 0.00 | 0.00 | 36 | 1005.8 |
| 20260504171523 | 64 | 236 | 2.0 | 14.0 | 0.00 | 0.00 | 0.00 | 38 | 1005.8 |
| 20260504171023 | 64 | 223 | 5.0 | 17.0 | 0.00 | 0.00 | 0.00 | 38 | 1006.0 |
| 20260504170522 | 64 | 219 | 5.0 | 17.0 | 0.00 | 0.00 | 0.00 | 38 | 1006.0 |
| 20260504151001 | 58 | 290 | 4.0 | 9.0 | 0.00 | 0.00 | 0.00 | 45 | 1007.4 |
| 20260504150600 | 57 | 360 | 1.0 | 10.0 | 0.00 | 0.00 | 0.00 | 48 | 1007.3 |
| 20260504150502 | 57 | 220 | 1.0 | 10.0 | 0.00 | 0.00 | 0.00 | 45 | 1007.2 |
| 20260504150112 | 56 | 199 | 4.0 | 15.0 | 0.00 | 0.00 | 0.00 | 44 | 1007.4 |
| 20260504141047 | 52 | 360 | 5.0 | 18.0 | 0.00 | 0.00 | 0.00 | 47 | 1007.5 |
| 20260504140548 | 52 | 360 | 6.0 | 18.0 | 0.00 | 0.00 | 0.00 | 46 | 1007.4 |
| 20260504130540 | 50 | 360 | 7.0 | 15.0 | 0.00 | 0.00 | 0.00 | 49 | 1007.9 |
| 20260504110523 | 46 | 360 | 4.0 | 13.0 | 0.00 | 0.00 | 0.00 | 53 | 1008.0 |
| 20260504100515 | 45 | 360 | 3.0 | 12.0 | 0.00 | 0.00 | 0.00 | 54 | 1007.9 |
| 20260504082004 | 47 | 360 | 3.0 | 11.0 | 0.00 | 0.00 | 0.00 | 50 | 1007.9 |
| 20260504081504 | 47 | 360 | 4.0 | 11.0 | 0.00 | 0.00 | 0.00 | 50 | 1007.8 |
| 20260504081004 | 47 | 360 | 2.0 | 8.0 | 0.00 | 0.00 | 0.00 | 49 | 1007.9 |
| 20260504080503 | 47 | 360 | 1.0 | 10.0 | 0.00 | 0.00 | 0.00 | 49 | 1008.0 |